Satellite: ANTELSAT Catalog number: 40034 Epoch time: 14310.66497177 Element set: 413 Inclination: 097.9610 deg RA of node: 202.4178 deg Eccentricity: 0.0062271 Arg of perigee: 111.2840 deg Mean anomaly: 249.5069 deg Mean motion: 14.71635886 rev/day Decay rate: 2.417e-05 rev/day^2 Epoch rev: 2055 Checksum: 284
/EX SB KEPS @ AMSAT $ORB14310.W Orbital Elements 14310.WEATHER
HR AMSAT ORBITAL ELEMENTS FOR WEATHER SATELLITES FROM WA5QGD FORT WORTH,TX November 6, 2014 BID: ORB14310.W TO ALL RADIO AMATEURS BT
Satellite: MET-2/21 Catalog number: 22782 Epoch time: 14309.87707381 Element set: 218 Inclination: 082.5515 deg RA of node: 060.8755 deg Eccentricity: 0.0021726 Arg of perigee: 224.7857 deg Mean anomaly: 253.6264 deg Mean motion: 13.83750813 rev/day Decay rate: 1.14e-06 rev/day^2 Epoch rev: 6971 Checksum: 311
Satellite: OKEAN-4 Catalog number: 23317 Epoch time: 14310.13698682 Element set: 701 Inclination: 082.5365 deg RA of node: 294.8120 deg Eccentricity: 0.0019939 Arg of perigee: 354.2317 deg Mean anomaly: 131.9891 deg Mean motion: 14.85882558 rev/day Decay rate: 1.797e-05 rev/day^2 Epoch rev: 8418 Checksum: 331
Satellite: NOAA-14 Catalog number: 23455 Epoch time: 14310.45877750 Element set: 967 Inclination: 098.7705 deg RA of node: 031.3158 deg Eccentricity: 0.0009135 Arg of perigee: 001.3897 deg Mean anomaly: 129.0043 deg Mean motion: 14.13997451 rev/day Decay rate: 8.9e-07 rev/day^2 Epoch rev: 2405 Checksum: 303
Satellite: NOAA-15 Catalog number: 25338 Epoch time: 14310.54632567 Element set: 409 Inclination: 098.7623 deg RA of node: 304.2008 deg Eccentricity: 0.0011770 Arg of perigee: 095.6349 deg Mean anomaly: 022.3823 deg Mean motion: 14.25499106 rev/day Decay rate: 1.73e-06 rev/day^2 Epoch rev: 85712 Checksum: 296
Satellite: RESURS Catalog number: 25394 Epoch time: 14309.83725753 Element set: 801 Inclination: 098.4340 deg RA of node: 268.3775 deg Eccentricity: 0.0001477 Arg of perigee: 159.5624 deg Mean anomaly: 257.7088 deg Mean motion: 14.24411594 rev/day Decay rate: 3.3e-07 rev/day^2 Epoch rev: 84848 Checksum: 326
Satellite: FENGYUN1 Catalog number: 25730 Epoch time: 14310.13370596 Element set: 290 Inclination: 098.9248 deg RA of node: 270.4503 deg Eccentricity: 0.0023106 Arg of perigee: 067.3025 deg Mean anomaly: 060.8715 deg Mean motion: 14.12369341 rev/day Decay rate: 2.218e-05 rev/day^2 Epoch rev: 79755 Checksum: 283
Satellite: OKEAN-0 Catalog number: 25860 Epoch time: 14310.53969502 Element set: 410 Inclination: 098.0637 deg RA of node: 273.7245 deg Eccentricity: 0.0001135 Arg of perigee: 084.6316 deg Mean anomaly: 034.5726 deg Mean motion: 14.75527412 rev/day Decay rate: 9.24e-06 rev/day^2 Epoch rev: 82314 Checksum: 283
Satellite: NOAA-16 Catalog number: 26536 Epoch time: 14310.47808769 Element set: 907 Inclination: 098.9736 deg RA of node: 011.3382 deg Eccentricity: 0.0011396 Arg of perigee: 139.6879 deg Mean anomaly: 220.5139 deg Mean motion: 14.13051606 rev/day Decay rate: 6.0e-08 rev/day^2 Epoch rev: 72820 Checksum: 312
Satellite: NOAA-17 Catalog number: 27453 Epoch time: 14310.47279142 Element set: 794 Inclination: 098.3231 deg RA of node: 302.7541 deg Eccentricity: 0.0012924 Arg of perigee: 115.5968 deg Mean anomaly: 244.6549 deg Mean motion: 14.24806847 rev/day Decay rate: 1.88e-06 rev/day^2 Epoch rev: 64294 Checksum: 325
Satellite: NOAA-18 Catalog number: 28654 Epoch time: 14310.53556547 Element set: 320 Inclination: 099.1650 deg RA of node: 293.0084 deg Eccentricity: 0.0013721 Arg of perigee: 221.8295 deg Mean anomaly: 250.7476 deg Mean motion: 14.12090871 rev/day Decay rate: 1.75e-06 rev/day^2 Epoch rev: 48765 Checksum: 304
Satellite: NOAA-19 Catalog number: 33591 Epoch time: 14310.52235608 Element set: 450 Inclination: 098.9618 deg RA of node: 255.2334 deg Eccentricity: 0.0015045 Arg of perigee: 079.1685 deg Mean anomaly: 022.1578 deg Mean motion: 14.11798519 rev/day Decay rate: 1.21e-06 rev/day^2 Epoch rev: 29607 Checksum: 305
/EX SB KEPS @ AMSAT $ORB14310.M Orbital Elements 14310.MISC
HR AMSAT ORBITAL ELEMENTS FOR MANNED AND MISCELLANEOUS SATELLITES FROM WA5QGD FORT WORTH,TX November 6, 2014 BID: ORB14310.M TO ALL RADIO AMATEURS BT
Satellite: HUBBLE Catalog number: 20580 Epoch time: 14310.11474785 Element set: 151 Inclination: 028.4689 deg RA of node: 183.7777 deg Eccentricity: 0.0003256 Arg of perigee: 008.1976 deg Mean anomaly: 127.6178 deg Mean motion: 15.06097452 rev/day Decay rate: 3.211e-05 rev/day^2 Epoch rev: 14613 Checksum: 293
Satellite: ISS Catalog number: 25544 Epoch time: 14310.74240478 Element set: 372 Inclination: 051.6453 deg RA of node: 112.8991 deg Eccentricity: 0.0004174 Arg of perigee: 003.5884 deg Mean anomaly: 092.7617 deg Mean motion: 15.50990467 rev/day Decay rate: 1.4161e-04 rev/day^2 Epoch rev: 91344 Checksum: 295
Satellite: CO-58 Catalog number: 28895 Epoch time: 14309.53989936 Element set: 915 Inclination: 097.8240 deg RA of node: 144.0289 deg Eccentricity: 0.0016067 Arg of perigee: 284.8003 deg Mean anomaly: 075.1419 deg Mean motion: 14.62164978 rev/day Decay rate: 8.93e-06 rev/day^2 Epoch rev: 48090 Checksum: 358
Satellite: FALCON Catalog number: 30776 Epoch time: 14309.46782177 Element set: 997 Inclination: 035.4292 deg RA of node: 317.8378 deg Eccentricity: 0.0002141 Arg of perigee: 161.8048 deg Mean anomaly: 324.0745 deg Mean motion: 15.18602562 rev/day Decay rate: 1.1057e-04 rev/day^2 Epoch rev: 42220 Checksum: 297
Satellite: MAST Catalog number: 31126 Epoch time: 14310.53096882 Element set: 197 Inclination: 097.9325 deg RA of node: 284.1461 deg Eccentricity: 0.0090254 Arg of perigee: 270.2615 deg Mean anomaly: 212.8148 deg Mean motion: 14.55552714 rev/day Decay rate: 8.50e-06 rev/day^2 Epoch rev: 40109 Checksum: 285
Satellite: CAPE1 Catalog number: 31130 Epoch time: 14309.84869845 Element set: 202 Inclination: 097.9532 deg RA of node: 280.3354 deg Eccentricity: 0.0096981 Arg of perigee: 291.5987 deg Mean anomaly: 067.4900 deg Mean motion: 14.54808273 rev/day Decay rate: 1.452e-05 rev/day^2 Epoch rev: 40040 Checksum: 312
Satellite: COMPASS Catalog number: 32787 Epoch time: 14310.43368555 Element set: 93 Inclination: 097.6844 deg RA of node: 359.8230 deg Eccentricity: 0.0014950 Arg of perigee: 074.0201 deg Mean anomaly: 286.2662 deg Mean motion: 14.88795542 rev/day Decay rate: 3.664e-05 rev/day^2 Epoch rev: 35334 Checksum: 318
Satellite: AAUSAT2 Catalog number: 32788 Epoch time: 14310.43387305 Element set: 81 Inclination: 097.6857 deg RA of node: 000.9909 deg Eccentricity: 0.0014423 Arg of perigee: 072.2750 deg Mean anomaly: 288.0040 deg Mean motion: 14.89602132 rev/day Decay rate: 4.416e-05 rev/day^2 Epoch rev: 35341 Checksum: 284
Satellite: DO-64 Catalog number: 32789 Epoch time: 14310.12454909 Element set: 125 Inclination: 097.7056 deg RA of node: 008.6401 deg Eccentricity: 0.0012660 Arg of perigee: 057.9182 deg Mean anomaly: 000.5974 deg Mean motion: 14.95314146 rev/day Decay rate: 1.0041e-04 rev/day^2 Epoch rev: 35369 Checksum: 293
Satellite: CO-66 Catalog number: 32791 Epoch time: 14310.12124783 Element set: 74 Inclination: 097.6835 deg RA of node: 357.9739 deg Eccentricity: 0.0015634 Arg of perigee: 078.9031 deg Mean anomaly: 281.3943 deg Mean motion: 14.87266941 rev/day Decay rate: 3.242e-05 rev/day^2 Epoch rev: 35314 Checksum: 324
Satellite: RS-30 Catalog number: 32953 Epoch time: 14310.85272993 Element set: 441 Inclination: 082.4967 deg RA of node: 112.5081 deg Eccentricity: 0.0018663 Arg of perigee: 203.8925 deg Mean anomaly: 156.1292 deg Mean motion: 12.43052185 rev/day Decay rate: 1.0e-07 rev/day^2 Epoch rev: 29298 Checksum: 294
Satellite: METEOR-M Catalog number: 35865 Epoch time: 14310.71831450 Element set: 49 Inclination: 098.5327 deg RA of node: 353.6840 deg Eccentricity: 0.0003340 Arg of perigee: 047.7895 deg Mean anomaly: 312.3567 deg Mean motion: 14.21946475 rev/day Decay rate: 1.40e-06 rev/day^2 Epoch rev: 26659 Checksum: 304
Satellite: RS-38 Catalog number: 35869 Epoch time: 14310.72473295 Element set: 955 Inclination: 098.5251 deg RA of node: 353.4236 deg Eccentricity: 0.0005436 Arg of perigee: 044.1165 deg Mean anomaly: 316.0441 deg Mean motion: 14.22240347 rev/day Decay rate: 1.30e-06 rev/day^2 Epoch rev: 26663 Checksum: 289
Satellite: JUGNU Catalog number: 37839 Epoch time: 14309.88778636 Element set: 728 Inclination: 019.9622 deg RA of node: 116.1330 deg Eccentricity: 0.0018905 Arg of perigee: 105.5904 deg Mean anomaly: 254.6417 deg Mean motion: 14.12362714 rev/day Decay rate: 4.69e-06 rev/day^2 Epoch rev: 15860 Checksum: 316
Satellite: SRMSAT Catalog number: 37841 Epoch time: 14309.89549698 Element set: 732 Inclination: 019.9710 deg RA of node: 138.2216 deg Eccentricity: 0.0011847 Arg of perigee: 040.1568 deg Mean anomaly: 091.3413 deg Mean motion: 14.10395452 rev/day Decay rate: 4.20e-06 rev/day^2 Epoch rev: 15838 Checksum: 300
Satellite: RAX-2 Catalog number: 37853 Epoch time: 14309.88415225 Element set: 955 Inclination: 101.7040 deg RA of node: 047.2415 deg Eccentricity: 0.0210013 Arg of perigee: 006.2405 deg Mean anomaly: 103.7809 deg Mean motion: 14.91473931 rev/day Decay rate: 7.128e-05 rev/day^2 Epoch rev: 16376 Checksum: 279
Satellite: AUBIESAT Catalog number: 37854 Epoch time: 14309.87137740 Element set: 953 Inclination: 101.7084 deg RA of node: 049.6094 deg Eccentricity: 0.0207442 Arg of perigee: 002.6366 deg Mean anomaly: 109.9684 deg Mean motion: 14.93025610 rev/day Decay rate: 7.592e-05 rev/day^2 Epoch rev: 16383 Checksum: 313
Satellite: HRBE Catalog number: 37855 Epoch time: 14310.17793862 Element set: 974 Inclination: 101.7082 deg RA of node: 049.1916 deg Eccentricity: 0.0209940 Arg of perigee: 003.5106 deg Mean anomaly: 356.7515 deg Mean motion: 14.92209156 rev/day Decay rate: 7.110e-05 rev/day^2 Epoch rev: 16383 Checksum: 297
